Location: Lugano
(46.0000°N, 8.9670°E)
Time: 16:54:54
(UTC+02:00)

Envisat - Pass Details

Date: 16 March 2026
Orbit: 761 x 762 km, 98.4° (Epoch: 19 April)

Event Time Altitude Azimuth Distance (km) Brightness Sun altitude
Rises 03:05:44 0° 14° (NNE) 3,235 6.9 -34.6°
Reaches altitude 10° 03:08:03 10° 16° (NNE) 2,305 6.1 -34.3°
Enters shadow 03:10:49 33° 19° (NNE) 1,264 4.4 -33.9°
